Theta_e
320 320 322 322 322 319 315 317 317 318 321 315 320 320 320 320 321 321 319 319 320 320 320 319 319 319 319 317 311 314 313 315 310 311 311 311 312 312 312 311 313 312 313 311 312 315 314 320 319 324 322 324 328 322
319 319 319 320 321 321 319 317 319 319 321 314 318 320 321 322 320 320 321 320 320 320 319 319 319 319 319 318 319 314 313 315 314 308 308 309 312 310 309 312 310 314 313 314 314 314 315 319 320 319 321 322 324 326
319 319 319 320 321 321 318 317 319 321 321 318 317 319 321 322 321 321 321 319 319 319 319 320 320 320 318 318 319 318 317 318 316 316 311 307 311 307 311 310 313 314 314 316 314 313 314 317 316 315 317 322 323 325
317 318 318 318 318 319 321 321 322 322 322 322 319 319 321 321 322 321 321 319 319 318 315 319 318 318 319 318 318 318 318 318 317 313 313 308 311 311 310 312 313 316 315 315 314 313 314 314 315 317 319 322 323 325
312 314 315 316 317 318 319 321 321 322 322 322 321 318 322 322 321 320 320 319 316 317 315 315 318 319 317 317 318 314 315 316 316 315 311 311 312 312 312 311 311 316 317 317 315 313 312 314 317 319 320 321 324 325
310 311 311 313 315 317 320 321 321 322 322 320 319 320 322 322 320 319 320 317 315 315 315 312 317 320 315 314 315 315 315 315 316 317 315 316 316 315 312 313 315 315 316 315 315 317 315 315 319 320 321 322 324 324
310 311 311 312 313 315 316 318 320 320 321 320 320 322 322 322 321 319 320 318 316 315 316 315 315 320 319 316 315 316 316 315 315 315 314 315 317 316 310 312 315 316 317 318 318 318 318 318 319 318 317 318 322 323
310 311 311 311 312 314 316 317 319 320 319 319 322 322 321 319 320 318 316 317 318 315 316 312 314 319 319 317 316 317 316 315 315 315 312 314 316 313 312 313 315 316 317 319 319 319 319 319 318 317 317 317 320 319
310 311 312 312 312 314 316 318 321 320 319 321 321 322 321 319 316 316 315 316 316 315 316 315 314 316 320 318 318 318 317 312 314 312 312 314 310 313 313 315 316 316 319 318 318 319 318 319 317 316 315 316 320 320
310 311 312 312 312 313 315 320 319 318 320 321 321 321 319 317 316 314 314 314 314 314 314 313 316 315 320 319 318 317 316 309 313 311 314 312 313 316 318 318 317 318 317 315 315 316 317 318 316 315 314 314 314 312
310 312 312 312 312 313 317 318 318 320 319 320 320 320 318 317 316 315 316 315 315 315 315 315 316 316 320 319 314 317 313 310 311 312 314 315 312 314 318 318 318 317 315 314 313 314 316 317 316 315 314 313 312 311
311 312 313 313 312 314 318 317 318 318 320 320 320 319 318 317 315 317 315 317 314 314 317 317 319 318 319 320 318 316 316 312 317 316 314 314 310 316 316 317 315 312 313 313 312 313 313 314 316 316 314 312 312 312
313 313 314 314 313 314 319 317 318 319 319 320 319 317 315 315 316 318 319 317 318 319 321 322 321 322 319 320 317 314 318 316 318 317 318 314 314 316 318 317 316 313 313 313 314 312 312 312 312 312 312 311 311 310
312 313 314 314 313 314 318 317 319 319 320 319 318 313 315 317 316 315 315 318 321 322 324 323 322 323 322 319 315 320 316 318 319 319 317 313 317 317 317 317 316 315 314 314 313 312 312 311 311 311 311 311 311 311
311 312 315 313 313 315 318 317 319 318 319 320 319 315 316 317 318 321 320 320 324 325 324 323 321 322 320 318 316 317 321 322 320 320 317 319 319 318 318 317 315 314 313 312 312 311 311 311 311 311 311 311 311 311
312 311 314 313 313 316 318 318 317 318 319 319 320 319 319 319 320 322 324 324 323 324 323 323 322 321 321 318 321 322 322 321 319 317 321 321 320 320 320 319 317 315 313 312 311 311 311 310 310 311 311 312 312 312
312 312 314 314 313 317 318 318 317 319 319 319 318 319 319 319 319 320 323 325 324 324 321 322 323 322 317 319 321 319 322 320 322 322 322 319 319 320 321 319 318 316 315 313 312 311 311 311 311 311 312 312 312 312
311 313 314 314 318 317 316 318 319 319 319 319 319 319 320 321 322 323 323 324 324 324 324 322 323 322 322 322 321 318 322 323 322 323 320 318 320 321 321 320 318 317 316 314 315 316 313 311 312 312 313 313 313 312
314 315 316 317 318 318 319 319 319 320 320 319 320 320 320 321 322 323 324 324 324 324 324 323 322 322 320 321 322 322 322 323 323 323 322 320 321 320 318 318 318 317 317 316 316 315 314 314 314 314 313 313 312 311
316 317 318 317 319 319 319 319 319 320 320 321 322 322 322 322 323 324 324 325 324 324 323 322 321 322 323 325 325 324 325 324 323 323 322 319 317 314 316 317 316 316 316 314 312 312 312 312 312 312 312 312 313 312
316 316 316 318 319 320 320 321 320 319 320 321 321 322 323 323 324 324 324 324 324 324 322 323 323 323 325 325 325 326 325 325 324 322 322 321 316 315 314 313 313 313 313 313 314 314 314 314 314 314 314 314 314 313
316 315 315 317 319 320 319 320 321 322 322 322 322 322 323 324 325 325 325 324 324 324 324 323 323 322 322 325 327 326 326 325 322 321 321 321 317 316 316 316 315 315 314 314 314 315 315 315 315 315 316 315 315 314
316 315 317 318 319 319 319 319 321 322 322 321 323 322 322 324 325 325 324 324 324 324 324 323 322 323 322 323 327 327 325 325 321 318 318 317 316 316 316 316 316 316 316 316 316 315 315 316 314 315 316 315 314 314
316 318 318 318 318 317 318 319 319 320 322 321 320 323 323 324 325 325 322 325 325 325 324 324 323 323 323 326 326 326 325 319 319 317 317 317 316 316 316 316 316 316 316 315 315 312 310 309 310 311 310 310 310 313
318 318 318 316 317 317 320 320 321 319 321 320 323 323 323 325 322 321 322 324 326 325 324 324 324 324 325 325 325 326 321 315 318 318 316 316 316 316 316 316 315 314 314 312 310 309 309 309 309 309 309 309 308 309
312 317 316 317 318 318 321 320 320 319 319 321 322 324 325 323 324 323 322 326 325 325 325 325 325 325 326 326 324 324 318 317 318 318 318 318 316 316 316 316 315 314 313 312 308 308 308 308 309 309 309 309 310 310
315 317 318 317 319 320 320 321 322 322 322 324 321 323 324 324 325 323 323 325 324 325 326 325 326 324 323 324 325 326 324 318 318 318 319 317 316 316 316 316 315 314 313 310 308 307 308 308 308 309 310 310 310 310
317 318 318 320 319 320 320 321 322 323 321 323 322 323 325 324 323 325 326 326 326 324 324 325 325 324 324 326 326 324 320 317 317 319 319 318 317 317 317 316 316 314 311 309 308 309 309 309 309 309 309 308 308 309
317 319 320 320 321 321 321 320 320 321 322 322 322 321 323 325 325 324 325 325 325 325 325 325 326 326 324 324 323 320 317 317 317 318 319 319 319 320 321 318 315 313 309 308 308 309 310 310 310 310 310 310 310 309
319 319 321 320 320 320 319 318 318 319 320 322 322 322 323 324 324 325 326 324 325 325 326 327 327 325 324 322 320 319 318 318 318 318 318 319 320 321 321 318 314 312 310 308 308 309 310 310 310 310 310 310 309 309
320 320 321 321 321 320 319 318 319 319 319 321 322 322 322 323 324 325 325 325 325 326 326 325 325 325 324 321 320 320 319 318 319 319 319 319 320 319 319 319 319 313 309 309 308 308 309 310 310 310 310 309 309 309
321 321 321 319 321 321 320 320 319 319 319 320 321 320 321 322 323 322 322 323 324 324 323 324 325 323 323 322 321 320 320 320 321 321 320 320 321 321 320 317 314 310 309 309 309 308 310 310 310 310 309 309 308 308
321 321 321 321 322 322 323 323 323 322 322 322 322 322 322 322 322 323 325 325 324 324 324 324 323 323 322 321 323 324 322 318 321 324 323 323 322 321 321 316 312 310 310 311 311 310 310 310 310 309 309 309 308 308
Wind_Speed
15 15 13 14 17 17 14 13 12 11 14 12 10 9 11 14 12 9 5 8 8 4 14 7 4 8 3 2 3 2 4 3 4 3 3 2 2 3 2 4 3 3 2 3 1 3 7 9 11 2 4 9 6 7
13 14 14 15 17 18 17 15 14 16 16 11 10 9 9 11 11 9 8 9 10 9 10 18 22 22 21 18 5 3 2 5 6 4 1 2 2 1 3 3 2 3 6 3 7 5 6 8 12 19 17 18 17 10
12 13 15 13 12 10 12 16 18 14 13 11 10 10 11 9 10 9 10 13 12 7 13 3 4 5 10 15 12 4 2 6 6 5 7 2 2 4 3 5 4 4 3 3 2 6 12 13 19 23 21 20 18 11
16 15 15 15 13 10 12 14 14 13 11 11 9 9 8 10 9 10 8 11 11 4 3 5 8 7 4 7 12 10 10 9 9 8 3 3 2 9 3 5 4 6 4 4 6 12 22 18 16 14 17 17 16 9
15 15 15 13 11 12 13 12 11 13 11 11 10 7 7 8 8 7 10 7 2 1 2 10 5 7 4 4 10 9 6 7 8 4 2 3 4 3 2 1 3 6 4 3 4 7 7 14 14 15 18 17 9 7
13 13 13 14 13 13 10 8 9 10 10 10 9 8 9 6 5 7 3 3 2 2 4 3 5 4 10 13 8 4 5 5 8 6 5 4 4 3 1 3 9 12 11 13 7 12 11 15 13 9 7 8 8 4
13 13 12 12 13 13 11 10 10 9 9 8 5 5 8 5 3 2 3 3 2 1 2 6 9 1 4 9 10 9 12 11 10 6 7 6 6 6 2 3 10 6 9 12 13 12 11 9 3 4 12 12 14 16
13 12 12 11 11 11 11 11 10 9 10 7 4 4 4 4 4 3 3 5 8 3 2 0 5 5 3 5 4 9 8 11 8 7 4 4 6 2 3 16 20 15 13 11 8 8 11 2 5 6 7 11 16 17
14 13 12 11 10 10 11 11 9 12 9 5 3 4 5 2 2 1 2 3 9 3 1 1 2 3 2 3 4 4 4 1 3 4 4 9 2 4 9 13 14 7 3 6 6 3 3 4 4 9 8 5 8 10
15 14 12 11 10 11 10 8 13 12 8 3 3 2 2 3 2 5 1 2 4 4 3 4 3 3 2 1 1 2 1 1 1 2 7 2 4 12 9 6 5 5 3 2 1 5 3 5 5 6 9 7 8 9
17 17 13 11 12 13 10 15 14 11 6 5 4 3 4 3 2 2 2 2 4 3 5 6 8 3 2 2 3 2 2 1 1 3 2 2 3 3 3 4 3 3 3 3 4 1 1 5 8 9 8 5 5 4
19 16 13 13 15 16 15 18 15 12 5 6 5 4 4 3 2 1 3 2 3 4 5 5 6 10 4 4 1 1 1 2 3 3 2 3 4 5 4 8 6 4 4 3 4 4 3 3 7 8 8 6 5 6
19 18 14 15 18 18 19 18 14 8 10 9 3 2 2 2 1 4 4 3 2 5 6 7 3 3 4 2 2 2 1 3 3 3 2 4 6 6 2 7 9 7 6 1 2 5 8 10 10 9 11 7 4 3
17 13 13 17 21 21 21 19 15 11 7 3 4 1 3 3 4 5 4 3 5 5 7 7 3 2 1 0 2 1 2 2 2 2 4 4 11 5 4 3 9 7 8 5 8 10 10 10 9 8 5 2 1 2
9 8 13 19 23 24 23 18 15 17 4 3 4 3 6 10 7 5 9 13 4 4 8 4 2 2 1 1 1 1 2 3 4 4 4 12 12 10 6 6 9 7 7 5 6 12 8 6 6 7 7 4 6 6
8 9 15 21 24 25 24 18 18 13 3 4 6 4 8 3 7 6 10 12 6 5 4 2 2 1 3 3 1 4 2 3 3 4 10 12 11 8 5 3 8 8 8 5 5 8 7 6 6 4 4 5 6 7
10 12 16 25 27 26 25 18 16 6 4 4 6 12 15 13 13 14 7 12 8 10 3 2 2 6 2 1 3 3 4 3 9 9 6 6 9 9 7 5 3 4 4 5 6 9 11 9 9 9 8 5 8 11
14 12 21 29 28 24 22 8 7 6 7 10 6 9 13 13 12 11 11 10 10 10 7 3 2 2 3 3 3 4 7 7 6 4 3 4 8 8 5 3 1 1 3 4 7 7 9 12 12 11 11 11 12 12
12 17 29 30 29 15 6 9 5 4 10 6 11 15 14 14 14 13 12 10 13 11 7 4 2 3 4 6 5 7 10 7 6 6 5 4 4 4 2 2 3 2 4 6 8 8 8 10 12 12 12 13 13 14
15 27 28 30 19 5 5 5 8 4 4 3 7 10 10 12 13 13 13 15 14 8 5 4 5 5 5 5 6 4 4 9 9 11 10 7 4 1 2 4 3 3 4 6 6 7 8 10 12 12 12 15 17 17
25 26 29 22 8 3 4 4 5 4 4 5 8 9 6 9 12 13 13 17 12 7 7 11 14 12 7 7 4 4 6 5 8 9 6 11 9 7 6 7 7 6 7 8 9 8 12 16 15 14 15 17 17 18
22 28 25 10 3 4 3 5 4 2 4 6 7 6 6 4 6 8 11 12 7 17 20 20 21 18 14 6 8 7 7 4 6 8 7 9 9 7 6 6 9 9 11 11 11 12 15 14 15 14 14 13 14 16
27 19 7 5 3 6 2 5 4 4 3 3 3 3 4 4 4 9 5 8 13 22 21 21 21 20 17 10 7 7 6 8 8 8 9 8 5 5 8 10 11 15 16 17 18 22 23 16 13 11 10 11 12 14
19 8 5 8 6 4 3 4 4 3 3 3 2 3 4 5 9 3 3 5 14 12 15 19 17 13 13 11 14 11 9 8 11 10 9 9 8 7 12 16 9 9 7 8 10 10 5 5 7 3 2 4 6 4
5 5 4 4 6 3 3 3 5 3 4 4 3 4 3 6 2 3 3 5 11 18 14 13 14 13 13 12 12 11 10 14 13 10 10 12 14 15 10 4 7 4 1 4 7 4 1 2 4 5 5 4 4 3
3 8 9 10 6 5 5 3 5 6 3 3 5 2 4 3 2 4 3 5 8 11 17 17 16 14 12 10 9 13 15 16 13 10 8 9 10 8 6 9 10 4 1 7 6 0 3 5 6 6 7 7 7 5
2 5 6 8 5 3 4 7 8 3 3 3 2 1 2 2 4 3 3 5 3 10 15 13 12 13 13 11 8 8 10 17 15 8 6 10 6 6 5 6 9 5 2 6 5 1 2 3 6 6 6 3 4 7
5 3 5 7 8 8 3 3 2 3 2 3 1 1 2 3 3 2 2 2 8 9 9 8 9 11 11 11 11 7 13 17 13 10 9 10 10 10 8 7 5 4 2 6 8 9 6 4 2 3 6 7 8 3
5 5 5 6 7 6 8 5 3 3 1 1 2 2 2 1 2 1 5 4 4 6 8 8 4 4 5 9 11 15 16 20 22 21 18 15 13 11 9 7 8 6 4 4 6 4 2 1 4 6 7 3 1 3
5 8 5 4 4 5 7 7 6 7 4 7 4 3 3 2 2 2 3 4 5 5 5 2 3 6 6 8 14 17 20 20 20 21 18 16 13 11 8 9 9 6 3 5 5 3 2 2 4 1 2 3 3 7
4 9 6 5 5 9 16 12 16 14 12 7 6 4 4 3 6 8 8 8 7 10 10 7 8 9 7 10 18 16 19 20 19 17 17 16 14 10 7 7 9 7 5 6 7 8 5 3 2 4 3 4 6 7
8 9 6 4 7 11 6 9 10 13 14 12 10 9 9 7 9 13 12 12 12 10 12 12 10 8 10 10 11 12 11 13 15 12 16 16 14 11 7 8 7 5 9 6 7 11 7 5 3 3 5 8 8 9
14 7 10 4 3 4 4 4 4 4 9 12 14 14 13 9 5 9 5 10 12 10 8 7 9 10 11 11 8 4 1 4 8 10 11 14 14 11 11 10 7 7 7 5 7 6 4 3 3 2 5 8 10 9
Wind_Direction
285 279 276 277 275 264 252 251 259 277 300 306 307 320 329 339 348 9 356 340 345 279 291 261 207 206 223 245 146 122 63 359 53 75 122 222 180 264 344 256 246 213 222 244 263 248 275 346 342 271 313 282 283 280
270 282 286 280 275 264 251 252 261 267 285 292 310 308 324 330 327 344 353 337 324 287 271 285 278 269 254 247 269 175 207 174 159 95 170 124 236 251 178 265 232 270 197 215 193 231 258 280 270 298 292 287 280 280
274 272 276 282 279 273 255 260 265 270 262 271 299 303 313 311 316 336 334 334 345 320 312 319 341 19 225 218 215 212 164 187 178 152 157 161 216 134 219 239 249 274 191 238 323 257 257 282 281 292 294 279 283 254
272 271 274 275 271 276 277 273 274 266 262 274 272 292 316 325 332 321 325 326 321 299 307 274 11 57 115 178 204 229 258 187 170 171 136 140 193 196 224 237 214 242 160 278 259 283 283 289 297 289 304 276 276 228
275 274 274 278 283 267 261 276 261 259 259 269 262 283 298 304 314 329 323 325 323 304 278 298 346 44 167 183 179 168 165 182 169 159 124 218 223 156 258 301 254 195 200 216 259 278 279 305 319 312 298 287 279 252
283 282 278 268 262 265 268 265 265 260 267 249 246 262 282 304 306 341 333 2 42 20 331 327 321 31 157 179 184 219 246 205 203 194 201 230 240 192 162 252 263 255 252 256 256 293 305 293 310 301 307 287 215 206
295 285 280 271 258 248 261 259 257 255 247 210 232 275 292 267 280 303 276 291 265 252 323 313 325 225 200 214 214 224 237 228 228 221 218 209 195 196 165 232 255 276 305 300 289 293 293 280 276 122 93 94 97 96
307 296 277 270 258 244 247 259 255 253 192 199 252 270 260 265 289 293 288 245 212 221 275 260 277 317 197 205 220 237 233 237 232 222 188 171 143 183 257 250 267 280 289 300 310 299 285 305 128 116 120 111 95 77
309 302 280 260 248 235 237 249 247 188 177 189 257 269 272 242 159 25 42 148 176 195 242 227 210 254 268 224 241 255 237 291 224 213 223 150 162 224 233 273 297 264 216 300 301 32 61 167 141 119 108 77 107 104
306 300 280 250 237 223 222 217 169 168 182 197 221 212 183 138 125 123 77 126 168 214 236 242 238 260 236 231 302 312 286 233 289 271 137 158 247 259 290 302 301 241 213 126 271 300 216 170 154 136 132 100 87 110
301 296 274 240 222 213 204 181 174 177 197 193 191 180 149 153 156 167 193 183 177 252 219 235 229 248 242 198 222 219 225 227 7 270 155 279 282 237 198 198 163 232 221 127 64 303 328 266 173 159 160 128 88 94
297 286 266 226 213 202 198 185 179 185 199 173 151 153 166 168 152 220 195 186 188 228 206 205 225 218 245 231 196 221 237 28 257 315 54 291 255 219 300 206 179 51 194 121 75 76 123 146 179 182 181 149 115 139
290 278 247 216 201 194 190 178 179 194 159 151 160 152 147 174 158 201 208 247 238 205 207 205 200 225 206 229 87 68 13 252 340 29 272 236 253 317 332 199 187 136 166 229 282 170 158 162 164 163 154 141 94 88
288 257 212 198 193 188 180 175 175 175 165 176 168 149 199 205 242 197 205 209 232 212 193 188 184 186 253 103 144 144 240 116 29 316 249 260 323 317 299 197 187 188 205 232 199 172 163 163 164 174 185 173 202 218
261 229 200 190 185 181 179 174 184 179 165 196 189 222 220 234 257 261 278 264 248 218 175 150 131 175 355 46 5 41 277 247 205 237 242 287 329 330 331 226 198 190 194 197 200 188 197 210 210 206 208 225 275 292
225 231 200 181 180 176 178 179 182 177 202 213 221 243 241 270 276 268 264 249 248 191 161 134 109 111 235 172 145 229 216 233 248 228 286 312 330 341 332 298 209 211 210 210 216 220 227 244 269 295 261 254 264 268
229 215 184 173 170 176 178 174 168 200 219 226 242 233 246 272 268 274 272 243 236 192 163 141 178 208 137 195 237 200 205 211 240 266 314 302 308 331 347 353 272 263 260 242 244 250 249 251 248 246 251 285 277 284
198 181 174 167 167 165 166 157 172 195 233 236 235 253 237 243 256 264 276 248 191 193 166 207 204 196 211 206 237 232 212 219 237 256 227 277 287 305 319 330 249 208 268 250 267 286 268 250 255 268 277 281 287 285
164 174 167 168 168 146 159 176 186 228 237 243 258 265 265 265 264 276 266 235 214 197 182 185 210 216 230 223 234 222 215 222 225 208 216 249 276 284 296 212 217 241 240 272 277 287 274 271 276 282 286 291 286 280
163 161 163 164 155 145 151 166 189 240 251 245 255 265 257 257 273 277 255 215 209 176 196 204 216 235 227 290 238 203 215 213 219 201 206 207 208 217 225 228 237 243 259 267 263 268 268 270 269 264 271 278 284 281
161 164 170 165 166 162 175 183 196 234 269 255 269 272 254 245 251 242 222 200 185 202 211 222 238 245 249 329 216 202 198 246 229 216 206 201 191 177 180 198 203 207 216 237 262 277 279 283 290 277 278 278 278 281
166 167 173 167 159 203 238 212 222 226 248 262 283 242 249 234 233 226 206 192 223 225 230 232 238 250 267 282 223 249 273 219 190 207 220 204 207 217 232 234 238 252 258 261 269 279 290 303 306 289 293 302 290 292
160 157 136 145 200 205 234 205 227 224 232 246 251 257 242 227 215 176 203 222 238 240 241 244 247 243 251 266 243 251 237 211 205 194 181 186 209 256 276 275 280 283 289 299 293 293 289 289 294 284 293 304 300 293
151 152 169 185 197 213 206 220 221 242 245 250 228 256 230 215 165 197 242 235 238 246 238 236 237 227 218 216 220 232 243 226 207 200 206 211 228 252 266 289 277 291 290 289 292 294 293 308 304 310 312 323 314 324
149 174 185 185 196 204 222 205 197 205 243 218 227 253 202 169 154 225 237 257 237 227 226 204 205 210 216 224 223 229 213 203 203 213 212 237 254 266 276 185 182 183 342 355 336 300 327 106 110 101 100 97 101 107
181 197 183 194 183 191 206 205 209 208 214 242 234 199 158 139 198 247 241 301 290 221 199 193 191 199 211 218 212 201 199 198 209 231 243 250 258 235 220 206 211 218 285 19 15 95 121 98 96 93 81 75 69 47
214 212 212 209 212 217 254 256 260 230 227 224 246 166 140 232 240 254 269 312 349 172 173 181 192 199 195 196 219 237 219 213 217 241 239 205 210 209 214 216 223 208 109 47 33 83 93 82 97 85 71 59 6 350
243 245 192 193 208 220 241 249 235 218 224 229 72 254 228 219 249 248 250 127 118 141 169 180 189 195 210 233 254 235 208 204 203 194 194 198 205 195 205 213 216 193 133 58 79 110 93 70 27 324 309 317 325 327
235 226 210 222 203 211 217 224 242 208 173 263 204 242 267 338 284 256 138 124 125 136 154 169 190 238 249 231 215 208 204 205 204 209 216 218 213 217 213 214 200 179 141 118 114 134 173 41 354 334 304 300 172 330
247 205 215 223 209 210 221 220 251 258 310 307 265 254 266 222 205 222 224 248 234 209 215 211 216 241 265 236 203 207 211 214 218 225 227 227 233 244 240 207 197 198 200 191 186 204 252 279 334 327 329 319 316 333
239 191 207 217 237 236 227 238 243 251 260 292 293 264 262 283 261 262 259 270 259 232 229 233 247 254 237 221 213 219 225 231 237 241 240 241 242 232 184 198 211 200 201 177 211 229 250 243 310 339 349 349 360 353
210 206 196 210 242 260 241 228 236 231 243 259 271 263 266 264 266 277 271 246 224 231 226 229 240 219 219 221 218 220 239 238 237 238 234 233 221 209 182 177 170 174 177 210 247 235 222 265 315 359 13 12 6 4
212 236 214 185 145 177 185 175 210 239 233 237 242 241 242 255 246 272 283 203 188 182 201 191 176 173 167 185 209 221 228 293 246 216 203 201 211 208 197 182 197 205 220 244 207 194 226 292 317 3 7 7 8 2